Location: Mizzole
(45.4833°N, 11.0500°E)
Time: 15:34:54
(UTC+00:00)

BREEZE-M DEB (TANK) - Pass Details

Date: 21 October 2019
Orbit: 306 x 13125 km, 49.6° (Epoch: 20 November)

Event Time Altitude Azimuth Distance (km) Brightness Sun altitude
Rises 16:54:28 0° 228° (SW) 5,413 8.9 -6.6°
Reaches altitude 10° 16:59:34 10° 223° (SW) 3,098 7.5 -7.5°
Maximum altitude 17:05:09 40° 154° (SSE) 810 3.5 -8.5°
Enters shadow 17:07:24 13° 84° (E) 1,276 4.0 -8.9°
